Location: Newark
(49.8348°N, 24.0280°E)
Time: 17:38:24
(UTC+00:00)

Transit 2A - Pass Details

Date: 25 January 2020
Orbit: 600 x 959 km, 66.7° (Epoch: 22 February)

Event Time Altitude Azimuth Distance (km) Brightness Sun altitude
Rises 19:35:13 0° 241° (WSW) 2,867 - -42.7°
Reaches altitude 10° 19:37:38 10° 250° (WSW) 1,949 - -43.0°
Maximum altitude 19:41:37 35° 317° (NW) 984 - -43.6°
Drops below altitude 10° 19:45:39 10° 24° (NNE) 1,972 - -44.2°
Sets 19:48:07 0° 34° (NE) 2,906 - -44.5°
